EW9827 Weather Reports


Display with metric or nautical units.
time (UTC)temp
F
wind
direction
speed
MPH
gust
MPH
rain 1hr
in
rain 24hr
in
rain mn
in
humidity
%
barometer
mb
20260504021504 45 93 0.0 6.0 0.00 0.00 0.00 57 1015.1
20260504020003 44 93 1.0 7.0 0.00 0.00 0.00 57 1015.1
20260504014501 45 93 0.0 4.0 0.00 0.00 0.00 57 1015.1
20260504013106 45 93 0.0 4.0 0.00 0.00 0.00 55 1014.9
20260504011555 46 93 0.0 2.0 0.00 0.00 0.00 55 1014.8
20260504010053 47 93 0.0 2.0 0.00 0.00 0.00 53 1014.8
20260504004550 48 93 0.0 6.0 0.00 0.00 0.00 51 1014.7
20260504003047 48 93 0.0 6.0 0.00 0.00 0.00 50 1014.6
20260504001542 49 93 1.0 7.0 0.00 0.00 0.00 49 1014.6
20260504000046 49 93 1.0 9.0 0.00 0.00 0.00 48 1014.6
20260503234539 50 93 2.0 11.0 0.00 0.00 0.00 49 1014.7
20260503233035 51 93 1.0 10.0 0.00 0.00 0.00 46 1014.7
20260503231534 51 93 1.0 8.0 0.00 0.00 0.00 46 1014.7
20260503230032 52 93 2.0 13.0 0.00 0.00 0.00 44 1014.8
20260503224533 52 93 1.0 11.0 0.00 0.00 0.00 46 1014.7
20260503223001 53 93 1.0 10.0 0.00 0.00 0.00 45 1014.8
20260503221602 53 93 2.0 9.0 0.00 0.00 0.00 47 1014.6
20260503220057 53 93 1.0 11.0 0.00 0.00 0.00 47 1014.7
20260503214556 52 93 6.0 17.0 0.00 0.00 0.00 46 1014.9
20260503213102 52 93 2.0 9.0 0.00 0.00 0.00 46 1014.9
20260503211611 51 93 2.0 10.0 0.00 0.00 0.00 46 1014.9
20260503210041 51 93 2.0 11.0 0.00 0.00 0.00 49 1014.8
20260503204540 51 93 4.0 12.0 0.00 0.00 0.00 45 1014.8
20260503203045 51 93 3.0 17.0 0.00 0.00 0.00 47 1014.9
20260503201535 52 93 8.0 14.0 0.00 0.00 0.00 45 1015.1
20260503200051 52 93 3.0 17.0 0.00 0.00 0.00 45 1015.3
20260503194532 52 93 4.0 12.0 0.00 0.00 0.00 47 1015.3
20260503193033 50 93 7.0 16.0 0.00 0.00 0.00 45 1015.6
20260503191525 51 93 4.0 18.0 0.00 0.00 0.00 43 1015.8
20260503190024 51 93 2.0 18.0 0.00 0.00 0.00 49 1016.0
20260503184533 50 93 3.0 15.0 0.00 0.00 0.00 46 1016.2
20260503183022 50 93 2.0 19.0 0.00 0.00 0.00 49 1016.3
20260503181522 50 93 10.0 17.0 0.00 0.00 0.00 44 1016.4
20260503180117 51 93 4.0 14.0 0.00 0.00 0.00 48 1016.3
20260503174601 50 93 4.0 17.0 0.00 0.00 0.00 47 1016.4
20260503173108 50 93 8.0 16.0 0.00 0.00 0.00 46 1016.6
20260503171554 50 93 7.0 17.0 0.00 0.00 0.00 52 1016.7
20260503100118 26 93 1.0 4.0 0.00 0.00 0.00 91 1017.2
20260503081533 28 93 1.0 3.0 0.00 0.00 0.00 89 1017.1
20260503071506 28 93 0.0 2.0 0.00 0.00 0.00 87 1016.7
20260503054550 31 93 0.0 3.0 0.00 0.00 0.00 83 1017.0
20260503053050 31 93 0.0 3.0 0.00 0.00 0.00 82 1017.1
20260503051550 31 93 1.0 3.0 0.00 0.00 0.00 82 1017.3
20260503050049 31 93 0.0 3.0 0.00 0.00 0.00 82 1017.4
20260503044547 31 93 0.0 4.0 0.00 0.00 0.00 81 1017.5
20260503043044 31 93 2.0 4.0 0.00 0.00 0.00 81 1017.5
20260503041543 31 93 1.0 3.0 0.00 0.00 0.00 81 1017.4
20260503040040 31 93 1.0 3.0 0.00 0.00 0.00 81 1017.5
20260503034537 32 93 1.0 3.0 0.00 0.00 0.00 79 1017.6
20260503033039 32 93 1.0 4.0 0.00 0.00 0.00 78 1017.6
20260503031535 33 93 0.0 3.0 0.00 0.01 0.00 77 1017.6
20260503030048 33 93 0.0 4.0 0.00 0.01 0.00 76 1017.6
20260503024532 33 93 1.0 4.0 0.00 0.01 0.00 76 1017.4
20260503023026 33 93 1.0 3.0 0.00 0.01 0.00 76 1017.6